WetterOnline ( https://www.wetteronline.de )

Wetter aktuell Asperg

Aktuelles Wetter: Schnarrenberg/Stuttgart (315m)

6-stündlich | Neueste Meldungen
Ortszeit Temperatur Wetter
So, 26.06. 2:00 18.5° C leicht bewölkt
Sa, 25.06. 20:00 25.3° C leicht bewölkt
Sa, 25.06. 14:00 24.8° C fast wolkenlos
Sa, 25.06. 8:00 17.5° C wolkenlos
Sa, 25.06. 2:00 15.2° C wolkenlos
Fr, 24.06. 20:00 17.5° C leichter Regen
Fr, 24.06. 14:00 23.2° C leichter Regen
Fr, 24.06. 8:00 20.1° C leicht bewölkt
Ortszeit Temperatur Wetter
So, 26.06. 7:30 18.5° C bedeckt
So, 26.06. 7:20 18.5° C bedeckt
So, 26.06. 7:10 18.3° C bedeckt
So, 26.06. 7:00 18.1° C bedeckt
So, 26.06. 6:50 18.1° C bedeckt
So, 26.06. 6:40 18.0° C bedeckt
So, 26.06. 6:30 18.5° C bedeckt
So, 26.06. 6:00 17.7° C bedeckt
So, 26.06. 5:30 18.2° C bedeckt
So, 26.06. 5:00 18.1° C bedeckt
So, 26.06. 4:30 18.5° C bewölkt
Ortszeit Relative Feuchte Sichtweite
So, 26.06. 2:00 72% 55 km
Sa, 25.06. 20:00 44% 65 km
Sa, 25.06. 14:00 50% >70 km
Sa, 25.06. 8:00 77% >70 km
Sa, 25.06. 2:00 90% 60 km
Fr, 24.06. 20:00 87% 60 km
Fr, 24.06. 14:00 58% 60 km
Fr, 24.06. 8:00 75% >70 km
Ortszeit Relative Feuchte Sichtweite
So, 26.06. 7:30 79% >70 km
So, 26.06. 7:20 79% -
So, 26.06. 7:10 80% -
So, 26.06. 7:00 80% 55 km
So, 26.06. 6:50 80% -
So, 26.06. 6:40 81% -
So, 26.06. 6:30 75% >70 km
So, 26.06. 6:00 79% 65 km
So, 26.06. 5:30 75% >70 km
So, 26.06. 5:00 76% >70 km
So, 26.06. 4:30 73% >70 km
Ortszeit Niederschlagsmenge Niederschlagsart
So, 26.06. 2:00 0.0 l/m2 in 6 Std. -
Sa, 25.06. 20:00 0.0 l/m2 in 12 Std. -
Sa, 25.06. 14:00 0.0 l/m2 in 6 Std. -
Sa, 25.06. 8:00 1 l/m2 in 12 Std. -
Sa, 25.06. 2:00 1 l/m2 in 6 Std. Regen
Fr, 24.06. 20:00 5 l/m2 in 12 Std. Regen
Fr, 24.06. 14:00 0.1 l/m2 in 6 Std. Regen
Fr, 24.06. 8:00 4 l/m2 in 12 Std. Regen
Ortszeit Niederschlagsmenge Niederschlagsart
So, 26.06. 7:30 0.0 l/m2 in 1 Std. -
So, 26.06. 7:20 keine Meldung -
So, 26.06. 7:10 keine Meldung -
So, 26.06. 7:00 0.0 l/m2 in 1 Std. -
So, 26.06. 6:50 keine Meldung -
So, 26.06. 6:40 keine Meldung -
So, 26.06. 6:30 0.0 l/m2 in 1 Std. -
So, 26.06. 6:00 0.0 l/m2 in 1 Std. -
So, 26.06. 5:30 0.0 l/m2 in 1 Std. -
So, 26.06. 5:00 0.1 l/m2 in 1 Std. Regen
So, 26.06. 4:30 0.1 l/m2 in 1 Std. Schneeregen
Ortszeit Stärke Spitze Richtung
km/h Bft. km/h Grad Sektor
So, 26.06. 2:00 11 2 22 150° SO
Sa, 25.06. 20:00 14 3 25 130° SO
Sa, 25.06. 14:00 9 2 24 130° SO
Sa, 25.06. 8:00 7 2 18 130° SO
Sa, 25.06. 2:00 9 2 26 170° S
Fr, 24.06. 20:00 13 3 37 240° SW
Fr, 24.06. 14:00 14 3 25 310° NW
Fr, 24.06. 8:00 9 2 24 150° SO
Ortszeit Stärke Spitze Richtung
km/h Bft. km/h Grad Sektor
So, 26.06. 7:30 2 1 7 300° NW
So, 26.06. 7:20 2 1 - 300° NW
So, 26.06. 7:10 6 1 - 110° O
So, 26.06. 7:00 4 1 7 130° SO
So, 26.06. 6:50 4 1 - 130° SO
So, 26.06. 6:40 4 1 - 120° SO
So, 26.06. 6:30 0 0 7 - -
So, 26.06. 6:00 7 2 11 80° O
So, 26.06. 5:30 2 1 6 310° NW
So, 26.06. 5:00 4 1 14 120° SO
So, 26.06. 4:30 7 2 13 310° NW
Ortszeit Untergrenze Bedeckung Gattung
total tief tief mittel hoch
So, 26.06. 2:00 5700 m 4/8 4/8 - - -
Sa, 25.06. 20:00 9000 m 5/8 0/8 - - -
Sa, 25.06. 14:00 1380 m 1/8 1/8 - - -
Sa, 25.06. 8:00 - 0/8 0/8 - - -
Sa, 25.06. 2:00 - 0/8 0/8 - - -
Fr, 24.06. 20:00 2400 m 7/8 7/8 - - -
Fr, 24.06. 14:00 1170 m 8/8 2/8 - - -
Fr, 24.06. 8:00 7200 m 7/8 0/8 - - -
Ortszeit Bedeckungsgrad in Achtel und Wolkenuntergrenze
So, 26.06. 7:30 8(4200m) 8(4800m)
So, 26.06. 7:20 8(4200m) 8(4800m)
So, 26.06. 7:10 8
So, 26.06. 7:00 4(4200m) 8(4800m)
So, 26.06. 6:50 4(4200m) 8(4800m)
So, 26.06. 6:40 8
So, 26.06. 6:30 8(4200m) 8(5100m)
So, 26.06. 6:00 5(4200m) 8(4800m)
So, 26.06. 5:30 3(3900m) 8(4800m)
So, 26.06. 5:00 8(3900m) 8(4800m)
So, 26.06. 4:30 3(3300m) 7(3900m) 7(4800m)
Ortszeit Luftdruck NN (hPa) Tendenz (hPa in 3 Std.)
So, 26.06. 2:00 1013 + 0,7
Sa, 25.06. 20:00 1011 - 0,8
Sa, 25.06. 14:00 1013 - 1,1
Sa, 25.06. 8:00 1015 + 0,9
Sa, 25.06. 2:00 1014 + 0,8
Fr, 24.06. 20:00 1011 + 1,3
Fr, 24.06. 14:00 1008 - 0,7
Fr, 24.06. 8:00 1010 - 0,5
Ortszeit Luftdruck NN (hPa) Tendenz (hPa in 3 Std.)
So, 26.06. 7:30 1015 + 0,2
So, 26.06. 7:20 1015 keine Meldung
So, 26.06. 7:10 1014 keine Meldung
So, 26.06. 7:00 1014 + 0,3
So, 26.06. 6:50 1014 keine Meldung
So, 26.06. 6:40 1015 keine Meldung
So, 26.06. 6:30 1015 + 0,3
So, 26.06. 6:00 1014 + 0,3
So, 26.06. 5:30 1014 + 0,9
So, 26.06. 5:00 1014 + 1,3
So, 26.06. 4:30 1014 + 1,2
Ortszeit Schneehöhe (cm)
So, 26.06. 2:00 0
Sa, 25.06. 20:00 0
Sa, 25.06. 14:00 0
Sa, 25.06. 8:00 0
Sa, 25.06. 2:00 0
Fr, 24.06. 20:00 0
Fr, 24.06. 14:00 0
Fr, 24.06. 8:00 0
Ortszeit Schneehöhe (cm)
So, 26.06. 7:30 0
So, 26.06. 7:20 0
So, 26.06. 7:10 0
So, 26.06. 7:00 0
So, 26.06. 6:50 0
So, 26.06. 6:40 0
So, 26.06. 6:30 0
So, 26.06. 6:00 0
So, 26.06. 5:30 0
So, 26.06. 5:00 0
So, 26.06. 4:30 0
Link zu dieser Seite / Seite empfehlen

Das Wetter in ...